Location: St. Louis
(38.6270°N, 90.1994°W)
Time: 12:05:05
(UTC-06:00)

S-56A Canister/Altair - Pass Details

Date: 02 December 2021
Orbit: 634 x 2499 km, 38.9° (Epoch: 26 January)

Event Time Altitude Azimuth Distance (km) Brightness Sun altitude
Rises 02:08:01 0° 262° (W) 4,551 - -56.2°
Reaches altitude 10° 02:11:33 10° 263° (W) 3,271 - -55.6°
Maximum altitude 02:19:13 90° 328° (NNW) 934 - -54.1°
Drops below altitude 10° 02:24:27 10° 85° (E) 2,273 - -53.2°
Sets 02:26:32 0° 85° (E) 3,083 - -52.8°
